TimeCST,TemperatureF,Dew PointF,Humidity,Sea Level PressureIn,VisibilityMPH,Wind Direction,Wind SpeedMPH,Gust SpeedMPH,PrecipitationIn,Events,Conditions,WindDirDegrees,DateUTC
12:15 AM,42.8,39.2,87,29.86,3.0,North,8.1,-,N/A,,Overcast,350,2013-02-13 06:15:00
12:36 AM,42.8,39.2,87,29.86,3.0,NNW,10.4,-,N/A,,Overcast,340,2013-02-13 06:36:00
12:55 AM,42.8,39.2,87,29.86,3.0,NNW,13.8,-,N/A,,Overcast,340,2013-02-13 06:55:00
1:15 AM,42.8,39.2,87,29.86,2.0,NNW,17.3,-,0.01,,Overcast,340,2013-02-13 07:15:00
1:35 AM,42.8,37.4,81,29.86,3.0,North,16.1,-,0.01,,Overcast,350,2013-02-13 07:35:00
1:55 AM,42.8,37.4,81,29.86,5.0,North,18.4,-,0.01,,Overcast,350,2013-02-13 07:55:00
2:15 AM,42.8,37.4,81,29.87,5.0,NNW,16.1,20.7,N/A,,Mostly Cloudy,340,2013-02-13 08:15:00
2:35 AM,42.8,37.4,81,29.87,7.0,NNW,17.3,-,N/A,,Overcast,340,2013-02-13 08:35:00
3:15 AM,41.0,35.6,81,29.89,10.0,NNW,18.4,-,N/A,,Overcast,340,2013-02-13 09:15:00
3:35 AM,41.0,35.6,81,29.89,10.0,North,20.7,-,N/A,,Overcast,350,2013-02-13 09:35:00
4:15 AM,39.2,35.6,87,29.90,10.0,NNW,15.0,-,N/A,,Overcast,340,2013-02-13 10:15:00
4:35 AM,39.2,35.6,87,29.91,10.0,NNW,15.0,-,N/A,,Overcast,340,2013-02-13 10:35:00
4:55 AM,39.2,35.6,87,29.92,10.0,NNW,13.8,-,N/A,,Overcast,330,2013-02-13 10:55:00
5:35 AM,39.2,33.8,81,29.94,10.0,NNW,13.8,-,N/A,,Overcast,330,2013-02-13 11:35:00
5:55 AM,39.2,33.8,81,29.94,10.0,NNW,11.5,-,N/A,,Overcast,340,2013-02-13 11:55:00
6:35 AM,39.2,33.8,81,29.96,10.0,NW,9.2,-,N/A,,Overcast,320,2013-02-13 12:35:00
6:55 AM,39.2,33.8,81,29.97,10.0,NW,9.2,-,N/A,,Overcast,320,2013-02-13 12:55:00
7:15 AM,39.2,33.8,81,29.98,10.0,NW,9.2,-,N/A,,Overcast,310,2013-02-13 13:15:00
7:36 AM,39.2,33.8,81,29.99,10.0,NW,11.5,-,N/A,,Overcast,310,2013-02-13 13:36:00
7:55 AM,39.2,33.8,81,30.00,10.0,NW,11.5,-,N/A,,Overcast,310,2013-02-13 13:55:00
8:15 AM,39.2,35.6,87,30.00,10.0,NW,10.4,-,N/A,,Overcast,310,2013-02-13 14:15:00
8:55 AM,41.0,35.6,81,30.02,10.0,NW,11.5,-,N/A,,Overcast,310,2013-02-13 14:55:00
9:15 AM,41.0,33.8,76,30.03,10.0,WNW,11.5,-,N/A,,Overcast,300,2013-02-13 15:15:00
9:35 AM,41.0,35.6,81,30.04,10.0,NW,12.7,-,N/A,,Overcast,310,2013-02-13 15:35:00
10:15 AM,42.8,35.6,76,30.06,10.0,NW,11.5,-,N/A,,Overcast,310,2013-02-13 16:15:00
10:35 AM,42.8,35.6,76,30.07,10.0,NW,10.4,-,N/A,,Overcast,310,2013-02-13 16:35:00
10:55 AM,42.8,35.6,76,30.07,10.0,WNW,12.7,-,N/A,,Overcast,300,2013-02-13 16:55:00
11:15 AM,44.6,35.6,71,30.07,10.0,WNW,11.5,-,N/A,,Overcast,290,2013-02-13 17:15:00
11:35 AM,46.4,37.4,71,30.06,10.0,NW,11.5,-,N/A,,Overcast,310,2013-02-13 17:35:00
12:15 PM,46.4,35.6,66,30.06,10.0,West,8.1,-,N/A,,Overcast,270,2013-02-13 18:15:00
12:55 PM,46.4,35.6,66,30.03,10.0,NNW,4.6,-,N/A,,Mostly Cloudy,330,2013-02-13 18:55:00
1:15 PM,46.4,35.6,66,30.02,10.0,WNW,4.6,-,N/A,,Scattered Clouds,300,2013-02-13 19:15:00
1:35 PM,48.2,37.4,66,30.02,10.0,WNW,6.9,-,N/A,,Mostly Cloudy,300,2013-02-13 19:35:00
1:55 PM,50.0,37.4,62,30.01,10.0,NNW,8.1,-,N/A,,Overcast,330,2013-02-13 19:55:00
2:16 PM,50.0,35.6,58,30.00,10.0,NW,10.4,-,N/A,,Overcast,310,2013-02-13 20:16:00
2:35 PM,50.0,37.4,62,30.00,10.0,West,10.4,-,N/A,,Overcast,270,2013-02-13 20:35:00
2:55 PM,48.2,37.4,66,30.00,10.0,WNW,10.4,-,N/A,,Overcast,300,2013-02-13 20:55:00
3:15 PM,50.0,37.4,62,30.00,10.0,WNW,10.4,-,N/A,,Overcast,290,2013-02-13 21:15:00
3:35 PM,48.2,37.4,66,30.01,10.0,West,9.2,-,N/A,,Overcast,280,2013-02-13 21:35:00
3:55 PM,48.2,35.6,62,30.00,10.0,West,8.1,-,N/A,,Overcast,270,2013-02-13 21:55:00
4:15 PM,48.2,35.6,62,30.00,10.0,West,9.2,-,N/A,,Scattered Clouds,260,2013-02-13 22:15:00
4:36 PM,48.2,35.6,62,30.00,10.0,West,9.2,-,N/A,,Clear,270,2013-02-13 22:36:00
4:55 PM,48.2,35.6,62,30.00,10.0,WSW,8.1,-,N/A,,Partly Cloudy,250,2013-02-13 22:55:00
5:15 PM,48.2,37.4,66,30.00,10.0,WSW,8.1,-,N/A,,Partly Cloudy,250,2013-02-13 23:15:00
5:55 PM,46.4,35.6,66,30.01,10.0,WSW,5.8,-,N/A,,Clear,240,2013-02-13 23:55:00
6:15 PM,46.4,37.4,71,30.01,10.0,SSW,6.9,-,N/A,,Clear,200,2013-02-14 00:15:00
6:35 PM,44.6,35.6,71,30.01,10.0,South,6.9,-,N/A,,Clear,190,2013-02-14 00:35:00
6:56 PM,44.6,35.6,71,30.01,10.0,South,8.1,-,N/A,,Clear,190,2013-02-14 00:56:00
7:15 PM,44.6,35.6,71,30.02,10.0,South,6.9,-,N/A,,Clear,190,2013-02-14 01:15:00
7:35 PM,42.8,35.6,76,30.02,10.0,South,6.9,-,N/A,,Clear,190,2013-02-14 01:35:00
7:55 PM,44.6,35.6,71,30.02,10.0,South,5.8,-,N/A,,Clear,180,2013-02-14 01:55:00
8:15 PM,42.8,35.6,76,30.03,10.0,SSW,6.9,-,N/A,,Clear,200,2013-02-14 02:15:00
8:35 PM,42.8,35.6,76,30.03,10.0,SSW,8.1,-,N/A,,Clear,200,2013-02-14 02:35:00
8:55 PM,41.0,35.6,81,30.03,10.0,South,9.2,-,N/A,,Clear,190,2013-02-14 02:55:00
9:16 PM,41.0,33.8,76,30.04,10.0,South,8.1,-,N/A,,Clear,190,2013-02-14 03:16:00
9:35 PM,41.0,33.8,76,30.04,10.0,South,8.1,-,N/A,,Clear,190,2013-02-14 03:35:00
9:55 PM,41.0,33.8,76,30.04,10.0,South,6.9,-,N/A,,Clear,190,2013-02-14 03:55:00
10:15 PM,39.2,33.8,81,30.05,10.0,SSW,8.1,-,N/A,,Clear,210,2013-02-14 04:15:00
10:36 PM,39.2,33.8,81,30.05,10.0,SSW,8.1,-,N/A,,Clear,200,2013-02-14 04:36:00
10:55 PM,39.2,33.8,81,30.05,10.0,SSW,9.2,-,N/A,,Clear,200,2013-02-14 04:55:00
11:15 PM,39.2,33.8,81,30.05,10.0,SSW,9.2,-,N/A,,Clear,200,2013-02-14 05:15:00
11:55 PM,39.2,35.6,87,30.05,10.0,SSW,9.2,-,N/A,,Clear,210,2013-02-14 05:55:00